Regional Weather Roundup
Issued by NWS Northern Indiana

Home | Current Version | Previous Version | Graphics & Text | Print | Product List | Glossary On
Versions: 1 2 3 4 5 6 7 8 9 10 11 12 13 14 15 16 17 18 19 20 21 22 23 24 25 26 27 28 29 30 31 32 33 34 35 36 37 38 39 40 41 42 43 44 45 46 47 48 49 50
000
ASUS43 KIWX 011810
RWRIWX

KIWX WEATHER ROUNDUP
NATIONAL WEATHER SERVICE NORTHERN INDIANA
200 PM EDT WED APR 01 2015

NOTE: "FAIR" INDICATES FEW OR NO CLOUDS BELOW 12,000 FEET WITH NO
SIGNIFICANT WEATHER AND/OR OBSTRUCTIONS TO VISIBILITY.

* THESE STATIONS ARE NOT UNDER NWS QUALITY CONTROL. THEY ALSO MAY NOT
  REPORT WEATHER SUCH AS PRECIPITATION OR FOG.

INZ001>027-011900-
NORTHERN INDIANA

CITY           SKY/WX    TMP DP  RH WIND       PRES   REMARKS
GARY*          SUNNY     68  28  22 S12       30.03F
VALPARAISO     SUNNY     66  34  30 SW10      30.04F
6HR MIN TEMP:  36; 6HR MAX TEMP:  66;

MICHIGAN CITY* SUNNY     66  27  22 SW9       30.03F
LAPORTE*       SUNNY     67  36  32 SW7       30.04F
6HR MIN TEMP:  34; 6HR MAX TEMP:  67;

KNOX*          SUNNY     64   1   8 S7        30.03F
SOUTH BEND     SUNNY     65  35  33 SW9       30.06F
6HR MIN TEMP:  31; 6HR MAX TEMP:  65;

ELKHART*       SUNNY     64  30  27 W12       30.07F
GOSHEN         SUNNY     65  38  36 SW12      30.06F
6HR MIN TEMP:  36; 6HR MAX TEMP:  65;

MONTICELLO*    SUNNY     65  38  36 SE5       30.05F
6HR MIN TEMP:  36; 6HR MAX TEMP:  65;

LOGANSPORT*    SUNNY     64  32  29 S8        30.07F
ROCHESTER*     SUNNY     68  36  30 S6        30.07F
WARSAW*        SUNNY     64  36  34 S5        30.07F
ANGOLA*        SUNNY     63  37  39 W13       30.07F
FORT WAYNE     MOSUNNY   63  35  35 SW12      30.10F
6HR MIN TEMP:  32; 6HR MAX TEMP:  64;

HUNTINGTON*    SUNNY     63  27  25 W5        30.08F
6HR MIN TEMP:  35; 6HR MAX TEMP:  64;

PERU/GRISSOM   SUNNY     66  35  31 S10       30.06F
6HR MIN TEMP:  35; 6HR MAX TEMP:  66;

MARION*        SUNNY     62  31  31 SE8       30.10F
6HR MIN TEMP:  -9; 6HR MAX TEMP:  69;


$$
INZ028>050-011900-
CENTRAL INDIANA

CITY           SKY/WX    TMP DP  RH WIND       PRES   REMARKS
LAFAYETTE      SUNNY     66  35  31 S12G18    30.05F
6HR MIN TEMP:  38; 6HR MAX TEMP:  66;

MUNCIE*        SUNNY     63  33  32 VRB3      30.09F
6HR MIN TEMP:  38; 6HR MAX TEMP:  63;

INDIANAPOLIS   MOSUNNY   64  32  30 SE9G17    30.08F
6HR MIN TEMP:  38; 6HR MAX TEMP:  65;


$$
MIZ043>046-050>051-056>058-064>065-071>073-077>080-011900-
SOUTHWEST LOWER MICHIGAN

CITY           SKY/WX    TMP DP  RH WIND       PRES   REMARKS
BATTLE CREEK   SUNNY     62  36  37 VRB6      30.07F
6HR MIN TEMP:  29; 6HR MAX TEMP:  62;

BENTON HARBOR  SUNNY     62  37  39 W5        30.04F
6HR MIN TEMP:  27; 6HR MAX TEMP:  63;

COLDWATER*     SUNNY     61  34  36 W10       30.08F
6HR MIN TEMP:  29; 6HR MAX TEMP:  61;

HILLSDALE*     SUNNY     61  36  38 W10       30.08F
HOLLAND        SUNNY     62  38  40 SW10      30.06F
6HR MIN TEMP:  31; 6HR MAX TEMP:  63;

GRAND RAPIDS   MOSUNNY   59  34  39 SW8       30.07F
6HR MIN TEMP:  28; 6HR MAX TEMP:  59;

KALAMAZOO      SUNNY     61  37  41 W10       30.07F
STURGIS*       SUNNY     61  37  41 S6        30.06F
THREE RIVERS*  FAIR      63  36  36 W8        30.07F

$$
OHZ001>008-015>018-024>025-011900-
NORTHWEST OHIO

CITY           SKY/WX    TMP DP  RH WIND       PRES   REMARKS
WAUSEON*       FAIR      61  39  44 SW12G18   30.09F
DEFIANCE       SUNNY     62  35  36 W6G17     30.10F
6HR MIN TEMP:  30; 6HR MAX TEMP:  63;

FINDLAY        SUNNY     61  36  39 W9        30.10F
6HR MIN TEMP:  32; 6HR MAX TEMP:  62;

TOLEDO EXPRESS SUNNY     58  37  45 SW8       30.10F
6HR MIN TEMP:  28; 6HR MAX TEMP:  58;

TOLEDO METCALF SUNNY     59  38  45 W10       30.12F
6HR MIN TEMP:  30; 6HR MAX TEMP:  59;

LIMA           SUNNY     61  37  41 SW6G17    30.11F
6HR MIN TEMP:  35; 6HR MAX TEMP:  61;


$$
AND FOR LAKE MICHIGAN COASTAL AND OPEN LAKE BUOY OBSERVATIONS

STATION/POSITION TEMP    WIND        PRES    VSBY  WAVE
                 AIR SEA DIR/SP/G                  HT/PER
                 (F)     (DEG/KT/KT) (MB)    (MI)  (FT/S)
CALUMET HARBOR    64     190/ 10/ 12 1015.2F
MICHIGAN CITY     43      30/ 10/ 12   N/A
BURNS HARBOR      45      60/  3/  6 1017.6S
SAINT JOSEPH      51     360/  3/  5 1017.6F

$$
&&



USA.gov is the U.S. government's official web portal to all federal, state and local government web resources and services.